Elko, NV

6:16 PM PDT on April 25, 2017 (GMT -0700)
Elko Regional

Weather History for KEKO - December, 2012

Change the Weather History Date:

Monday, December 24, 2012

  Actual Average Record
Temperature  
Mean Temperature 19 °F 25 °F  
Max Temperature 34 °F 36 °F 56 °F (1910)
Min Temperature 3 °F 14 °F -38 °F (1924)
Degree Days  
Heating Degree Days 46 40  
Month to date heating degree days 762 929  
Since 1 July heating degree days 2080 2667  
Cooling Degree Days 0 0  
Month to date cooling degree days 0 0  
Year to date cooling degree days 682 383  
Moisture  
Dew Point 20 °F    
Average Humidity 73    
Maximum Humidity 92    
Minimum Humidity 53    
Precipitation  
Precipitation 0.09 in 0.04 in 0.81 in (1955)
Month to date precipitation 1.39 0.91  
Year to date precipitation 7.03 9.62  
Snow  
Snow 1.60 in 0.30 in 9.20 in (1955)
Month to date snowfall 12.0 7.3  
Since 1 July snowfall 13.8 13.0  
Snow Depth 4.00 in    
Sea Level Pressure  
Sea Level Pressure 29.98 in    
Wind  
Wind Speed 5 mph (North)    
Max Wind Speed 21 mph    
Max Gust Speed 26 mph    
Visibility 7 miles    
Events Fog , Snow    
T = Trace of Precipitation, MM = Missing Value Source: NWS Daily Summary

Daily Weather History Graph

Daily Weather History Graph

Search for Another Location

Airport or City:

Trip Planner

Search our weather history database for the weather conditions in past years. The results will help you decide how hot, cold, wet, or windy it might be!

Date:

Astronomy

Dec. 24, 2012 Rise Set
Actual Time 7:05 AM PST 4:20 PM PST
Civil Twilight 6:34 AM PST 4:51 PM PST
Nautical Twilight 6:00 AM PST 5:26 PM PST
Astronomical Twilight 5:26 AM PST 5:59 PM PST
Moon 1:51 PM PST (12/24) 3:47 AM PST (12/24)
Length of Visible Light 10h 17m
Length of Day
9h 14m
Waxing Gibbous, 89% of the Moon is Illuminated
Dec 24
Waxing Gibbous
Dec 28
Full
Jan 4
Last Quarter
Jan 11
New
Jan 18
First Quarter

Hourly Weather History & Observations

Time (PST) Temp. Windchill Dew Point Humidity Pressure Visibility Wind Dir Wind Speed Gust Speed Precip Events Conditions
12:56 AM 32.0 °F 26.4 °F 30.0 °F 92% 29.83 in 10.0 mi SW 5.8 mph - N/A   Scattered Clouds
1:56 AM 30.9 °F - 28.0 °F 89% 29.83 in 10.0 mi Calm Calm - N/A   Overcast
2:56 AM 30.9 °F 26.2 °F 28.9 °F 92% 29.83 in 10.0 mi ESE 4.6 mph - N/A   Overcast
3:56 AM 30.0 °F - 28.0 °F 92% 29.82 in 5.0 mi Calm Calm - 0.00 in Snow Light Snow
4:03 AM 30.2 °F - 28.4 °F 93% 29.77 in 2.5 mi Calm Calm - 0.00 in Snow Light Snow
4:19 AM 30.2 °F - 28.4 °F 93% 29.76 in 8.0 mi Calm Calm - 0.01 in Snow Light Snow
4:27 AM 30.2 °F - 28.4 °F 93% 29.76 in 10.0 mi Calm Calm - 0.01 in   Overcast
4:46 AM 30.2 °F 24.3 °F 28.4 °F 93% 29.75 in 2.5 mi SW 5.8 mph - 0.01 in Snow Light Snow
4:56 AM 30.0 °F 26.5 °F 28.0 °F 92% 29.81 in 1.5 mi West 3.5 mph - 0.01 in Snow Light Snow
5:08 AM 30.2 °F - 28.4 °F 93% 29.76 in 2.0 mi Calm Calm - 0.01 in Snow Light Snow
5:20 AM 28.4 °F 15.8 °F 26.6 °F 93% 29.79 in 1.0 mi NNW 18.4 mph 26.5 mph 0.01 in Snow Light Snow
5:24 AM 28.4 °F 15.4 °F 26.6 °F 93% 29.80 in 0.5 mi North 19.6 mph 26.5 mph 0.01 in Fog , Snow Snow
5:35 AM 28.4 °F 16.6 °F 26.6 °F 93% 29.80 in 0.5 mi North 16.1 mph 20.7 mph 0.05 in Fog , Snow Snow
5:50 AM 28.4 °F 19.1 °F 24.8 °F 86% 29.82 in 1.0 mi NNE 10.4 mph - 0.06 in Snow Light Snow
5:56 AM 28.0 °F 20.8 °F 26.1 °F 92% 29.88 in 1.2 mi NE 6.9 mph 17.3 mph 0.06 in Snow Light Snow
6:05 AM 28.4 °F 24.6 °F 26.6 °F 93% 29.83 in 3.0 mi East 3.5 mph - 0.00 in Snow Light Snow
6:21 AM 28.4 °F 23.3 °F 24.8 °F 86% 29.85 in 1.8 mi East 4.6 mph - 0.01 in Snow Light Snow
6:44 AM 28.4 °F 23.3 °F 24.8 °F 86% 29.87 in 0.8 mi NNE 4.6 mph - 0.02 in Snow Light Snow
6:53 AM 28.4 °F 19.7 °F 24.8 °F 86% 29.88 in 2.0 mi East 9.2 mph - 0.02 in Snow Light Snow
6:56 AM 28.0 °F 18.6 °F 24.1 °F 85% 29.93 in 3.0 mi East 10.4 mph - 0.02 in Snow Light Snow
7:03 AM 26.6 °F 18.2 °F 24.8 °F 93% 29.88 in 9.0 mi East 8.1 mph - 0.00 in   Overcast
7:28 AM 26.6 °F 20.0 °F 24.8 °F 93% 29.90 in 10.0 mi ESE 5.8 mph - 0.00 in   Overcast
7:35 AM 28.4 °F 23.3 °F 23.0 °F 80% 29.90 in 10.0 mi East 4.6 mph - 0.00 in   Overcast
7:56 AM 28.0 °F 22.8 °F 21.9 °F 78% 29.97 in 10.0 mi NE 4.6 mph - 0.00 in   Overcast
8:56 AM 27.0 °F 19.5 °F 21.9 °F 81% 30.03 in 10.0 mi NW 6.9 mph - N/A   Overcast
9:56 AM 26.1 °F 17.6 °F 19.0 °F 75% 30.06 in 10.0 mi WNW 8.1 mph - N/A   Overcast
10:56 AM 28.9 °F - 17.1 °F 61% 30.07 in 10.0 mi Calm Calm - N/A   Clear
11:56 AM 28.0 °F 20.8 °F 17.1 °F 63% 30.08 in 10.0 mi NW 6.9 mph - N/A   Clear
12:56 PM 28.9 °F 22.8 °F 17.1 °F 61% 30.08 in 10.0 mi NW 5.8 mph - N/A   Partly Cloudy
1:56 PM 28.9 °F 21.1 °F 17.1 °F 61% 30.10 in 10.0 mi NW 8.1 mph - N/A   Clear
2:56 PM 28.9 °F 19.8 °F 14.0 °F 54% 30.11 in 10.0 mi NNW 10.4 mph - N/A   Scattered Clouds
3:56 PM 25.0 °F 14.2 °F 14.0 °F 63% 30.14 in 10.0 mi NW 11.5 mph - N/A   Clear
4:56 PM 21.9 °F 14.5 °F 14.0 °F 72% 30.19 in 10.0 mi SE 5.8 mph - N/A   Clear
5:56 PM 23.0 °F 11.7 °F 15.1 °F 72% 30.21 in 10.0 mi SSW 11.5 mph - N/A   Scattered Clouds
6:56 PM 18.0 °F 12.7 °F 10.9 °F 74% 30.26 in 10.0 mi SW 3.5 mph - N/A   Clear
7:56 PM 18.0 °F 7.7 °F 10.9 °F 74% 30.28 in 10.0 mi West 8.1 mph - N/A   Scattered Clouds
8:56 PM 10.9 °F 1.4 °F 7.0 °F 84% 30.30 in 10.0 mi WNW 5.8 mph - N/A   Clear
9:56 PM 8.1 °F - 3.9 °F 83% 30.33 in 10.0 mi Calm Calm - N/A   Clear
10:42 PM 5.0 °F - 1.4 °F 85% 30.17 in 1.5 mi Calm Calm - N/A   Clear
10:53 PM 3.2 °F - 1.4 °F 92% 30.17 in 5.0 mi Calm Calm - N/A   Clear
10:56 PM 5.0 °F - 1.0 °F 84% 30.34 in 10.0 mi Calm Calm - N/A   Clear
11:56 PM 5.0 °F - 1.0 °F 84% 30.33 in 10.0 mi Calm Calm - N/A   Clear